�N����,����,�~����,�C��,���x,�C��,����,���ϕ���,�ő�u�ԕ���,�ő厞����,���˗�,�I�_���x,�n�����x,�ő啗���N��,DTYPE
"16/08/13","00:10",0.0,24.6,84.3,1002.2,318.8,0.7,1.4,340.7,0.00,21.8,27.0,"00:08:24",1
"16/08/13","00:20",0.0,24.5,84.5,1002.4,309.5,0.6,1.4,338.2,0.00,21.8,27.1,"00:19:20",1
"16/08/13","00:30",0.0,24.7,84.8,1002.2,299.9,0.5,1.0,325.9,0.00,22.0,27.2,"00:20:16",1
"16/08/13","00:40",0.0,24.7,85.0,1002.4,307.4,0.5,0.8,307.2,0.00,22.0,27.2,"00:32:56",1
"16/08/13","00:50",0.0,24.7,84.9,1002.4,306.1,0.5,1.0,335.5,0.00,22.0,27.2,"00:47:04",1
"16/08/13","01:00",0.0,24.9,85.6,1002.4,327.4,0.8,1.8,334.4,0.00,22.4,27.1,"00:56:16",1
"16/08/13","01:10",0.0,24.8,85.5,1002.2,315.5,0.6,1.3,342.4,0.00,22.2,27.0,"01:03:28",1
"16/08/13","01:20",0.0,24.8,85.2,1002.2,292.9,0.5,0.8,245.7,0.00,22.2,27.1,"01:18:48",1
"16/08/13","01:30",0.0,24.9,84.9,1002.4,303.7,0.5,1.1,333.7,0.00,22.2,26.9,"01:28:16",1
"16/08/13","01:40",0.0,24.9,84.7,1002.2,313.8,0.6,0.9,336.0,0.00,22.2,26.8,"01:35:20",1
"16/08/13","01:50",0.0,24.9,84.5,1001.9,289.1,0.5,0.6,308.6,0.00,22.1,27.1,"01:44:24",1
"16/08/13","02:00",0.0,24.9,84.5,1002.2,302.8,0.5,0.8,317.9,0.00,22.1,27.0,"01:53:52",1
"16/08/13","02:10",0.0,24.9,84.8,1002.2,288.2,0.5,0.5,284.9,0.00,22.2,27.0,"02:01:04",1
"16/08/13","02:20",0.0,24.8,85.1,1002.2,303.9,0.5,0.9,325.5,0.00,22.2,26.7,"02:18:16",1
"16/08/13","02:30",0.0,24.7,85.5,1002.2,309.2,0.5,0.9,319.8,0.00,22.1,26.7,"02:21:04",1
"16/08/13","02:40",0.0,24.5,86.1,1002.4,295.7,0.6,0.9,319.6,0.00,22.1,26.8,"02:33:36",1
"16/08/13","02:50",0.0,24.3,86.5,1002.2,298.5,0.6,1.0,320.8,0.00,21.9,26.6,"02:49:28",1
"16/08/13","03:00",0.0,24.1,87.2,1002.2,301.4,0.6,0.9,311.1,0.00,21.9,26.7,"02:52:00",1
"16/08/13","03:10",0.0,23.9,87.9,1002.4,292.6,0.7,1.4,329.1,0.00,21.8,26.6,"03:08:56",1
"16/08/13","03:20",0.0,23.7,88.3,1001.9,316.3,0.8,1.2,332.1,0.00,21.7,26.3,"03:17:28",1
"16/08/13","03:30",0.0,23.7,88.6,1002.4,322.1,1.0,1.6,346.4,0.00,21.7,26.6,"03:25:12",1
"16/08/13","03:40",0.0,23.6,88.7,1002.4,311.4,0.8,1.1,339.6,0.00,21.7,26.3,"03:32:16",1
"16/08/13","03:50",0.0,23.3,89.1,1002.2,296.3,0.7,1.1,314.0,0.00,21.4,26.2,"03:44:16",1
"16/08/13","04:00",0.0,23.1,90.0,1002.2,309.5,0.8,1.3,318.5,0.00,21.4,26.2,"03:59:12",1
"16/08/13","04:10",0.0,23.0,90.6,1002.2,297.3,0.8,1.1,314.1,0.00,21.4,26.1,"04:00:16",1
"16/08/13","04:20",0.0,22.8,91.1,1002.4,299.3,0.8,1.0,311.6,0.00,21.3,26.1,"04:17:20",1
"16/08/13","04:30",0.0,22.7,91.6,1002.6,304.3,1.0,1.2,319.6,0.00,21.3,26.0,"04:21:12",1
"16/08/13","04:40",0.0,22.5,91.9,1002.4,299.7,1.0,1.6,321.7,0.00,21.2,25.8,"04:34:08",1
"16/08/13","04:50",0.0,22.4,92.5,1002.9,288.5,0.8,1.3,320.3,0.00,21.2,25.9,"04:42:24",1
"16/08/13","05:00",0.0,22.5,92.5,1002.6,291.6,0.8,1.2,311.1,0.00,21.3,25.6,"04:51:12",1
"16/08/13","05:10",0.0,22.4,92.8,1002.9,301.6,1.1,1.4,315.2,0.00,21.2,25.8,"05:07:36",1
"16/08/13","05:20",0.0,22.4,92.8,1002.9,309.5,1.0,1.6,315.5,0.00,21.2,25.8,"05:16:48",1
"16/08/13","05:30",0.0,22.4,92.9,1002.6,296.8,1.0,1.2,311.6,0.00,21.2,25.6,"05:21:04",1
"16/08/13","05:40",0.0,22.4,93.1,1002.6,292.9,1.0,1.0,293.9,0.00,21.3,25.8,"05:34:40",1
"16/08/13","05:50",0.0,22.5,93.2,1002.9,282.0,0.8,1.0,280.2,0.00,21.4,25.6,"05:46:40",1
"16/08/13","06:00",0.0,22.6,93.3,1003.1,290.6,0.7,1.2,321.8,0.00,21.5,25.4,"05:58:56",1
"16/08/13","06:10",0.0,23.1,92.9,1003.1,319.9,0.7,1.2,356.4,0.00,21.9,25.4,"06:09:52",1
"16/08/13","06:20",0.0,23.7,91.9,1002.9,332.6,0.7,1.1,342.1,0.01,22.3,25.6,"06:10:08",1
"16/08/13","06:30",0.0,24.4,90.1,1002.9,285.0,0.2,0.5,297.7,0.02,22.7,25.7,"06:28:16",1
"16/08/13","06:40",0.0,25.4,86.5,1002.9,323.2,0.1,0.5,332.9,0.04,23.0,25.7,"06:34:24",1
"16/08/13","06:50",0.0,26.4,81.3,1003.4,4.8,0.3,1.0,357.3,0.06,23.0,25.8,"06:41:36",1
"16/08/13","07:00",0.0,26.7,79.8,1003.4,36.8,0.5,1.0,8.7,0.08,23.0,25.8,"06:52:16",1
"16/08/13","07:10",0.0,27.2,78.4,1003.1,21.1,0.3,1.1,351.2,0.10,23.2,26.0,"07:07:20",1
"16/08/13","07:20",0.0,27.8,75.1,1002.9,117.5,0.3,0.9,229.9,0.12,23.0,26.0,"07:14:08",1
"16/08/13","07:30",0.0,28.2,73.7,1002.9,169.6,0.6,1.6,203.6,0.15,23.1,26.2,"07:26:00",1
"16/08/13","07:40",0.0,28.4,70.8,1002.4,143.0,0.7,1.8,147.9,0.17,22.6,26.3,"07:34:40",1
"16/08/13","07:50",0.0,28.9,69.8,1003.1,81.5,0.6,1.6,61.0,0.19,22.9,26.4,"07:41:36",1
"16/08/13","08:00",0.0,29.2,67.6,1002.9,136.2,0.8,1.8,135.0,0.22,22.6,26.5,"07:56:16",1
"16/08/13","08:10",0.0,29.7,66.6,1002.9,88.6,0.6,2.8,32.3,0.24,22.9,26.7,"08:05:20",1
"16/08/13","08:20",0.0,29.7,66.9,1002.9,112.8,0.8,1.7,150.5,0.25,22.9,26.9,"08:18:56",1
"16/08/13","08:30",0.0,29.9,66.3,1003.4,126.4,0.8,2.1,187.9,0.28,23.0,26.9,"08:21:04",1
"16/08/13","08:40",0.0,30.3,65.2,1003.4,114.7,0.7,1.7,61.4,0.31,23.1,27.1,"08:37:12",1
"16/08/13","08:50",0.0,30.4,65.0,1003.6,130.1,1.0,2.5,130.4,0.32,23.1,27.4,"08:42:08",1
"16/08/13","09:00",0.0,29.8,65.3,1003.4,97.0,0.7,2.2,58.1,0.22,22.6,27.5,"08:50:48",1
"16/08/13","09:10",0.0,30.4,65.3,1003.1,194.2,1.1,2.8,237.6,0.29,23.2,27.6,"09:02:32",1
"16/08/13","09:20",0.0,31.2,59.3,1003.6,152.6,1.5,2.9,155.9,0.41,22.4,27.8,"09:10:32",1
"16/08/13","09:30",0.0,30.3,61.7,1003.8,121.6,1.0,1.9,105.4,0.30,22.2,28.1,"09:27:28",1
"16/08/13","09:40",0.0,30.8,61.8,1003.6,89.0,1.0,3.3,194.6,0.29,22.7,28.1,"09:39:36",1
"16/08/13","09:50",0.0,31.4,60.4,1003.8,183.4,1.8,3.3,221.6,0.45,22.8,28.3,"09:46:40",1
"16/08/13","10:00",0.0,32.0,56.8,1003.8,150.1,1.2,2.9,196.7,0.47,22.4,28.8,"09:51:04",1
"16/08/13","10:10",0.0,32.2,57.3,1004.1,144.9,1.2,3.5,192.2,0.50,22.7,28.9,"10:01:20",1
"16/08/13","10:20",0.0,32.0,56.4,1003.8,181.0,1.2,2.8,163.7,0.46,22.3,29.1,"10:13:44",1
"16/08/13","10:30",0.0,32.7,54.4,1003.8,162.7,1.5,3.6,202.1,0.53,22.3,29.5,"10:25:04",1
"16/08/13","10:40",0.0,32.9,54.8,1004.3,153.7,1.5,3.5,208.7,0.56,22.6,29.9,"10:39:52",1
"16/08/13","10:50",0.0,32.8,55.0,1004.1,153.2,1.0,2.7,202.0,0.44,22.6,30.2,"10:49:44",1
"16/08/13","11:00",0.0,33.0,53.9,1004.1,140.2,1.1,3.7,186.6,0.47,22.5,30.2,"10:59:20",1
"16/08/13","11:10",0.0,33.4,51.6,1004.1,150.2,1.5,3.5,189.9,0.59,22.1,30.4,"11:07:20",1
"16/08/13","11:20",0.0,33.7,52.3,1003.6,90.3,1.1,2.6,132.3,0.57,22.6,30.8,"11:11:52",1
"16/08/13","11:30",0.0,33.8,51.8,1003.4,46.6,1.1,2.8,355.5,0.54,22.5,31.1,"11:25:44",1
"16/08/13","11:40",0.0,33.3,52.2,1003.8,207.0,1.6,4.3,227.5,0.54,22.2,31.2,"11:34:16",1
"16/08/13","11:50",0.0,34.3,52.5,1003.4,123.9,0.7,2.1,103.8,0.57,23.2,31.5,"11:45:04",1
"16/08/13","12:00",0.0,34.2,50.5,1004.1,117.8,1.2,3.2,129.9,0.54,22.5,31.7,"11:58:56",1
"16/08/13","12:10",0.0,32.6,54.2,1003.1,199.9,1.1,3.1,224.4,0.17,22.2,31.7,"12:04:40",1
"16/08/13","12:20",0.0,34.2,49.9,1003.4,187.8,1.3,2.9,223.5,0.50,22.3,32.1,"12:16:32",1
"16/08/13","12:30",0.0,33.2,51.6,1002.6,162.0,1.5,3.4,203.5,0.29,21.9,31.9,"12:21:28",1
"16/08/13","12:40",0.0,34.4,52.1,1002.6,173.7,0.7,2.5,70.7,0.40,23.2,32.1,"12:39:44",1
"16/08/13","12:50",0.0,34.9,47.9,1002.6,172.6,2.5,4.4,192.1,0.57,22.3,32.1,"12:46:08",1
"16/08/13","13:00",0.0,35.0,46.5,1002.4,153.4,1.7,3.3,111.9,0.58,21.9,32.4,"12:59:28",1
"16/08/13","13:10",0.0,35.5,48.1,1002.4,175.2,1.5,3.4,218.0,0.56,22.9,32.6,"13:09:04",1
"16/08/13","13:20",0.0,35.2,45.5,1002.4,177.6,1.5,4.3,227.3,0.56,21.7,32.7,"13:11:12",1
"16/08/13","13:30",0.0,35.2,47.1,1002.2,207.3,1.3,3.5,351.8,0.56,22.3,32.9,"13:20:40",1
"16/08/13","13:40",0.0,35.3,44.7,1002.6,85.9,1.1,2.1,67.7,0.50,21.5,33.2,"13:39:36",1
"16/08/13","13:50",0.0,34.4,48.5,1002.2,179.5,1.2,3.9,213.9,0.28,22.0,33.1,"13:45:12",1
"16/08/13","14:00",0.0,33.5,48.5,1001.7,188.7,1.3,3.4,222.4,0.09,21.2,32.9,"13:54:56",1
"16/08/13","14:10",0.0,33.4,50.7,1001.2,160.8,0.8,2.2,198.9,0.08,21.8,32.8,"14:04:40",1
"16/08/13","14:20",0.0,33.8,49.3,1000.8,318.5,0.7,2.9,230.4,0.15,21.7,32.4,"14:10:40",1
"16/08/13","14:30",0.0,34.3,50.2,1001.0,359.7,0.7,2.0,355.4,0.19,22.5,32.6,"14:22:40",1
"16/08/13","14:40",0.0,33.8,51.5,1000.5,166.3,0.6,1.4,188.5,0.09,22.4,32.2,"14:37:44",1
"16/08/13","14:50",0.0,33.8,49.5,1000.3,163.0,1.6,2.9,179.5,0.11,21.8,32.3,"14:49:36",1
"16/08/13","15:00",0.0,33.5,50.8,999.8,180.6,1.6,3.4,189.4,0.08,21.9,31.8,"14:52:00",1
"16/08/13","15:10",0.0,33.7,50.2,999.6,159.2,1.0,2.5,177.1,0.13,21.9,32.0,"15:00:48",1
"16/08/13","15:20",0.0,35.1,46.3,999.8,178.1,1.5,2.9,139.1,0.30,21.9,32.0,"15:16:32",1
"16/08/13","15:30",0.0,35.9,45.2,1000.3,176.8,1.3,2.9,201.8,0.34,22.2,32.2,"15:25:04",1
"16/08/13","15:40",0.0,35.6,46.1,1000.0,204.3,1.6,4.0,233.7,0.33,22.3,32.3,"15:34:40",1
"16/08/13","15:50",0.0,35.5,45.3,1000.3,214.0,2.0,5.0,223.3,0.32,21.9,32.3,"15:45:28",1
"16/08/13","16:00",0.0,35.8,45.4,1000.0,231.8,1.0,2.8,231.6,0.30,22.2,32.0,"15:50:56",1
"16/08/13","16:10",0.0,35.9,44.8,1000.5,219.1,1.0,2.4,243.2,0.29,22.1,31.9,"16:06:00",1
"16/08/13","16:20",0.0,35.3,47.3,1000.5,215.2,0.7,2.9,235.4,0.26,22.4,31.9,"16:18:32",1
"16/08/13","16:30",0.0,35.1,47.0,1000.0,211.1,1.5,3.2,184.2,0.16,22.1,31.7,"16:28:40",1
"16/08/13","16:40",0.0,34.7,48.5,999.8,213.0,2.1,3.9,221.6,0.20,22.3,31.6,"16:31:44",1
"16/08/13","16:50",0.0,34.5,49.7,999.8,219.3,1.5,3.6,209.0,0.09,22.5,31.7,"16:46:40",1
"16/08/13","17:00",0.0,34.0,50.6,999.8,224.5,1.2,2.9,185.1,0.04,22.3,31.4,"16:53:52",1
"16/08/13","17:10",0.0,33.8,50.9,999.3,222.5,1.3,2.7,230.6,0.06,22.3,31.4,"17:01:36",1
"16/08/13","17:20",0.0,33.9,51.2,999.1,217.9,1.6,3.2,219.2,0.07,22.4,31.4,"17:17:12",1
"16/08/13","17:30",0.0,33.8,51.8,999.1,217.4,1.3,3.3,214.4,0.05,22.5,31.2,"17:29:20",1
"16/08/13","17:40",0.0,33.7,51.7,998.9,225.5,1.5,3.6,227.8,0.05,22.4,30.9,"17:34:40",1
"16/08/13","17:50",0.0,33.5,52.8,998.9,226.5,1.6,3.5,202.7,0.04,22.6,31.2,"17:40:48",1
"16/08/13","18:00",0.0,33.1,54.3,998.6,238.4,0.8,2.9,226.2,0.02,22.7,30.9,"17:51:44",1
"16/08/13","18:10",0.0,32.9,55.2,998.6,238.6,0.8,4.0,224.7,0.02,22.8,31.0,"18:04:40",1
"16/08/13","18:20",0.0,32.7,55.9,998.6,236.7,0.8,3.5,228.2,0.02,22.8,30.8,"18:17:28",1
"16/08/13","18:30",0.0,32.5,56.1,998.6,249.7,0.6,2.4,233.6,0.00,22.7,30.8,"18:20:24",1
"16/08/13","18:40",0.0,32.2,57.0,998.6,275.3,0.5,2.4,252.8,0.00,22.6,30.4,"18:38:32",1
"16/08/13","18:50",0.0,31.9,57.6,998.6,313.2,0.5,1.6,215.3,0.00,22.5,30.5,"18:43:36",1
"16/08/13","19:00",0.0,31.6,58.4,998.6,11.1,0.5,2.4,3.1,0.00,22.5,30.2,"18:50:02",1
"16/08/13","19:10",0.0,31.4,59.9,998.9,17.4,1.1,2.7,57.0,0.00,22.7,30.2,"19:02:00",1
"16/08/13","19:20",0.0,30.9,62.2,998.4,40.6,0.1,0.9,21.6,0.00,22.9,30.2,"19:10:24",1
"16/08/13","19:30",0.0,30.3,63.6,998.4,37.9,0.1,0.4,88.3,0.00,22.7,30.0,"19:20:32",1
"16/08/13","19:40",0.0,29.9,64.6,997.7,251.0,0.1,0.8,205.7,0.00,22.5,29.9,"19:35:28",1
"16/08/13","19:50",0.0,29.9,65.1,998.2,236.6,0.1,0.6,253.2,0.00,22.7,29.8,"19:40:56",1
"16/08/13","20:00",0.0,29.7,66.8,998.2,2.1,0.2,0.8,355.2,0.00,22.9,29.7,"19:51:20",1
"16/08/13","20:10",0.0,29.4,68.9,998.2,355.0,0.5,1.1,343.8,0.00,23.1,29.6,"20:02:56",1
"16/08/13","20:20",0.0,29.1,69.4,998.6,303.8,0.1,0.5,339.7,0.00,23.0,29.5,"20:11:36",1
"16/08/13","20:30",0.0,28.9,70.3,999.1,331.9,0.2,1.0,340.0,0.00,23.0,29.5,"20:28:56",1
"16/08/13","20:40",0.0,28.7,71.4,998.9,309.4,0.2,0.8,317.7,0.00,23.1,29.3,"20:30:24",1
"16/08/13","20:50",0.0,28.5,72.8,999.3,327.6,0.5,1.2,353.5,0.00,23.2,29.1,"20:44:32",1
"16/08/13","21:00",0.0,28.3,73.6,999.1,331.4,0.8,2.2,341.4,0.00,23.2,29.1,"20:58:24",1
"16/08/13","21:10",0.0,28.2,74.1,999.3,346.6,1.0,2.6,358.4,0.00,23.2,28.9,"21:01:12",1
"16/08/13","21:20",0.0,28.1,74.3,999.6,335.9,0.8,1.8,359.2,0.00,23.1,28.9,"21:14:08",1
"16/08/13","21:30",0.0,27.9,74.8,999.1,335.7,1.0,2.4,336.8,0.00,23.1,28.8,"21:26:40",1
"16/08/13","21:40",0.0,27.8,75.4,999.6,326.0,0.6,1.4,346.7,0.00,23.1,28.6,"21:33:12",1
"16/08/13","21:50",0.0,27.8,75.4,999.3,325.9,0.7,2.1,352.0,0.00,23.1,28.7,"21:40:48",1
"16/08/13","22:00",0.0,27.7,76.2,999.6,286.3,0.3,0.8,333.8,0.00,23.2,28.6,"21:50:24",1
"16/08/13","22:10",0.0,27.6,76.7,999.6,309.1,0.5,1.2,334.2,0.00,23.2,28.7,"22:03:52",1
"16/08/13","22:20",0.0,27.5,76.8,999.8,308.0,0.3,1.2,345.9,0.00,23.1,28.7,"22:19:44",1
"16/08/13","22:30",0.0,27.4,76.9,999.8,324.4,0.7,1.6,352.6,0.00,23.0,28.5,"22:27:04",1
"16/08/13","22:40",0.0,27.2,77.4,999.8,272.8,0.5,1.0,315.0,0.00,22.9,28.3,"22:34:08",1
"16/08/13","22:50",0.0,27.0,78.4,999.8,282.7,0.5,1.0,324.1,0.00,23.0,28.1,"22:47:20",1
"16/08/13","23:00",0.0,26.8,79.6,999.8,285.8,0.5,0.8,294.7,0.00,23.0,28.2,"22:55:52",1
"16/08/13","23:10",0.0,26.5,80.6,1000.0,301.9,0.5,0.6,335.9,0.00,22.9,28.1,"23:04:40",1
"16/08/13","23:20",0.0,26.4,81.7,1000.0,294.3,0.3,0.8,295.5,0.00,23.1,28.1,"23:18:40",1
"16/08/13","23:30",0.0,26.2,83.0,999.8,299.9,0.5,1.0,325.7,0.00,23.1,27.9,"23:25:28",1
"16/08/13","23:40",0.0,26.1,83.7,999.8,294.4,0.5,0.9,315.1,0.00,23.2,28.0,"23:32:00",1
"16/08/13","23:50",0.0,26.1,83.9,999.6,306.7,0.5,0.9,326.8,0.00,23.2,27.8,"23:41:44",1
"16/08/13","24:00",0.0,26.0,84.2,999.8,313.0,0.5,1.6,333.7,0.00,23.2,27.4,"23:59:44",1
